Weather in Kyubyainde

Russia / Sakha (Yakutia) Republic     64°37′25″N   120°10′22″E
temp.,
°C
wind,
m/s
gust,
m/s
humid.,
%
clouds,
%
prec.,
mm/h
press.,
hPa
HPBL,
m
26 july, mon
mon2600:00+19sw35635 0.0 100869
03:00+18wsw38714 0.0 1008121
06:00+20w37720 0.0 1008149
09:00+26wnw46480 0.0 1008401
12:00+31wnw56330 0.0 10062406
15:00+32wnw663016 0.0 10052644
18:00+27w35467 0.0 1005137
21:00+25w376191 0.0 1006117
27 july, tue
tue2700:00+21nne36673 0.0 1007115
03:00+18ne23925 0.0 100948
06:00+19ne24855 0.0 1010155
09:00+23nne34535 0.0 1010623
12:00+25n344515 0.0 1010902
15:00+28n343935 0.0 10091470
18:00+27nnw444462 0.0 10081141
21:00+22n23625 0.0 100854
28 july, wed
wed2800:00+18ne227275 0.0 100821
03:00+15e226361 0.0 101015
06:00+16ene246483 0.0 1010138
09:00+20nne34496 0.0 1010566
12:00+24nne343854 0.0 10081119
15:00+26nne45270 0.0 10071614
18:00+25nne55270 0.0 10081749
21:00+19ne34480 0.0 100965
29 july, thu
thu2900:00+14ene33520 0.0 101036
03:00+12ene22510 0.0 101122
06:00+12ne24550 0.0 1012103
09:00+19ne35340 0.0 1011540
12:00+23ne35295 0.0 10101644
15:00+25nne45263 0.0 10092196
18:00+25nne45275 0.0 10092329
21:00+19nne224819 0.0 100912
30 july, fri
fri3000:00+14ese2254100 0.0 101013
03:00+12ne11545 0.0 101010
06:00+13n11533 0.0 101025
09:00+19n23385 0.0 1010407
12:00+23n23305 0.0 10091518
15:00+25nnw34265 0.0 10082104
18:00+26nnw34275 0.0 10072146
21:00+20nnw22473 0.0 100713